Regional Weather Roundup
Issued by NWS

Home | Current Version | Previous Version | Text Only | Print | Product List | Glossary Off
Versions: 1 2 3 4 5 6 7 8 9 10 11 12 13 14 15 16 17 18 19 20 21 22 23 24 25 26 27 28 29 30 31 32 33 34 35 36 37 38 39 40 41 42 43 44 45 46 47 48 49 50

000
ASUS43 KOAX 240010
RWRNE

WEATHER ROUNDUP FOR NEBRASKA
NATIONAL WEATHER SERVICE OMAHA NE
600 PM CST MON JAN 23 2017

NOTES: SATELLITE DATA IS BEING USED TO AUGMENT CLOUD COVER ABOVE
       12000 FEET.
       "FAIR" INDICATES FEW OR NO CLOUDS BELOW 12,000 FEET WITH NO
       SIGNIFICANT WEATHER AND/OR OBSTRUCTIONS TO VISIBILITY.

  * THESE STATIONS DO NOT REPORT WEATHER SUCH AS RAIN...SNOW OR FOG.

NEZ001>004-019>022-054>056-240100-
NEBRASKA PANHANDLE

CITY           SKY/WX    TMP DP  RH WIND       PRES   REMARKS
SCOTTSBLUFF    CLEAR     37  27  67 CALM      29.56R
6HR MIN TEMP:  37; 6HR MAX TEMP:  50;

ALLIANCE       PTCLDY    37  25  61 E5        29.56R WCI  33
6HR MIN TEMP:  37; 6HR MAX TEMP:  48;

CHADRON        CLOUDY    28  24  85 NE9       29.63R WCI  19
6HR MIN TEMP:  28; 6HR MAX TEMP:  43;

KIMBALL        CLOUDY    38  34  85 N8        29.56R WCI  32
SIDNEY         CLOUDY    37  27  67 S7        29.56S WCI  32
6HR MIN TEMP:  37; 6HR MAX TEMP:  51;

$$

NEZ057>060-069>072-079>082-240100-
SOUTHWEST NEBRASKA

CITY           SKY/WX    TMP DP  RH WIND       PRES   REMARKS
NORTH PLATTE   CLEAR     42  28  57 SE8       29.59R
6HR MIN TEMP:  42; 6HR MAX TEMP:  52;

IMPERIAL       CLEAR     44  27  51 NE3       29.57R
6HR MIN TEMP:  42; 6HR MAX TEMP:  51;

LEXINGTON      CLEAR     43  33  67 SE10      29.62S
MCCOOK         CLEAR     46  31  55 E7        29.58R
6HR MIN TEMP:  45; 6HR MAX TEMP:  54;

OGALLALA       PTCLDY    38  29  68 CALM      29.58R
$$

NEZ005>010-023>029-035>040-094-240100-
NORTH CENTRAL NEBRASKA

CITY           SKY/WX    TMP DP  RH WIND       PRES   REMARKS
VALENTINE      PTCLDY    39  27  62 E12       29.63R WCI  32
6HR MIN TEMP:  34; 6HR MAX TEMP:  47;

AINSWORTH      CLEAR     34  30  84 E12       29.64R WCI  26
BROKEN BOW     CLEAR     38  33  82 SE10      29.63R WCI  31
6HR MIN TEMP:  36; 6HR MAX TEMP:  47;

O`NEILL        CLOUDY    33  30  88 E9        29.71S WCI  25
ORD            CLOUDY    33  29  85 E8        29.68R WCI  26
6HR MIN TEMP:  31; 6HR MAX TEMP:  40;

THEDFORD       CLEAR     40  29  65 SE5       29.60R
$$

NEZ041-046>049-061>064-073>077-083>087-240100-
SOUTH CENTRAL NEBRASKA

CITY           SKY/WX    TMP DP  RH WIND       PRES   REMARKS
GRAND ISLAND   FOG       31  31 100 SE12      29.70F VSB 1   WCI  22
6HR MIN TEMP:  31; 6HR MAX TEMP:  35;

AURORA         CLOUDY    32  32 100 SE12      29.71S FOG     WCI  23
HASTINGS       CLOUDY    34  32  92 E13       29.69R FOG     WCI  25
6HR MIN TEMP:  34; 6HR MAX TEMP:  42;

HEBRON         CLOUDY    36  32  85 E8        29.73R WCI  30
HOLDREGE       CLEAR     40  30  68 SE8       29.63R WCI  35
KEARNEY *      CLOUDY    34  30  86 E15       29.66R VSB 1/2 WCI  24
YORK           PTCLDY    34  32  93 SE8       29.73S WCI  27
$$

NEZ011>018-030>034-042>045-240100-
NORTHEAST NEBRASKA

CITY           SKY/WX    TMP DP  RH WIND       PRES   REMARKS
NORFOLK        CLOUDY    32  28  85 E14       29.74R WCI  22
6HR MIN TEMP:  31; 6HR MAX TEMP:  36;

ALBION         CLOUDY    35  31  87 E9        29.72R WCI  28
BLAIR          CLOUDY    33  30  89 E9        29.79S WCI  25
FREMONT        CLOUDY    35  30  84 E10       29.78F WCI  27
TEKAMAH        CLOUDY    33  28  81 E7        29.81S WCI  27
6HR MIN TEMP:  33; 6HR MAX TEMP:  34;

WAYNE          CLOUDY    32  31  93 SE9       29.78S WCI  25
$$

NEZ050>053-065>068-078-088>093-240100-
SOUTHEAST NEBRASKA

CITY           SKY/WX    TMP DP  RH WIND       PRES   REMARKS
LINCOLN        MOCLDY    35  31  85 E8        29.79R WCI  29
6HR MIN TEMP:  35; 6HR MAX TEMP:  40;

OMAHA EPPLEY   CLOUDY    34  27  75 SE10      29.82R WCI  26
6HR MIN TEMP:  34; 6HR MAX TEMP:  36;

BEATRICE       CLEAR     36  32  88 E7        29.76S WCI  30
FALLS CITY     CLOUDY    35  31  85 E9        29.81S WCI  28
6HR MIN TEMP:  34; 6HR MAX TEMP:  39;

NEBRASKA CITY  CLOUDY    32  29  89 SE8       29.80F WCI  25
PLATTSMOUTH    CLOUDY    32  28  84 E10       29.80S WCI  24
$$

NEZ044-045-051>053-067-240100-
OMAHA AREA

CITY           SKY/WX    TMP DP  RH WIND       PRES   REMARKS
OMAHA EPPLEY   CLOUDY    34  27  75 SE10      29.82R WCI  26
6HR MIN TEMP:  34; 6HR MAX TEMP:  36;

BLAIR          CLOUDY    33  30  89 E9        29.79S WCI  25
FREMONT        CLOUDY    35  30  84 E10       29.78F WCI  27
MILLARD        CLOUDY    36  31  83 E8        29.80F WCI  29
OFFUTT AFB     MOCLDY    32  32  99 E9        29.80F WCI  25
PLATTSMOUTH    CLOUDY    32  28  84 E10       29.80S WCI  24
WAHOO          MOCLDY    33  30  89 SE9       29.79R WCI  25
$$



USA.gov is the U.S. government's official web portal to all federal, state and local government web resources and services.